Location: Haliburton Scout Reserve
(45.0900°N, 78.3200°W)
Time: 12:37:28
(UTC-05:00)

N. Korean satellite - Pass Details

Date: 30 November 2021
Orbit: 447 x 491 km, 97.3° (Epoch: 23 January)

Event Time Altitude Azimuth Distance (km) Brightness Sun altitude
Rises 06:27:17 0° 357° (N) 2,477 9.9 -10.9°
Reaches altitude 10° 06:29:45 10° 339° (NNW) 1,592 8.8 -10.5°
Maximum altitude 06:32:11 19° 293° (WNW) 1,152 7.8 -10.1°
Drops below altitude 10° 06:34:36 10° 247° (WSW) 1,575 8.7 -9.7°
Sets 06:37:01 0° 228° (SW) 2,439 9.9 -9.3°
